[Iaude] MPEC X180: 2023 XZ5 [a=1.83,e=0.34,i=19.5,H=20.1]

mpec at marsden.cfa.harvard.edu mpec at marsden.cfa.harvard.edu
Sun Dec 10 18:02:29 EST 2023


M.P.E.C. 2023-X180                            Issued 2023 December 10, 23:00 UT

     The Minor Planet Electronic Circulars contain information on unusual
         minor planets, routine data on comets and natural satellites,
         and occasional editorial announcements.  They are published
    on behalf of Division F of the International Astronomical Union by the
          Minor Planet Center, Smithsonian Astrophysical Observatory,
                          Cambridge, MA 02138, U.S.A.
			  
             Prepared using the Tamkin Foundation Computer Network

                              MPC at CFA.HARVARD.EDU
            URL https://www.minorplanetcenter.net/    ISSN 1523-6714

                                    2023 XZ5                                    


Observations:
     K23X05Z* C2023 12 06.23899801 20 59.399-29 53 47.91         20.91wXEX180F51
     K23X05Z  C2023 12 06.24961001 21 00.474-29 53 12.25         20.93wXEX180F51
     K23X05Z  C2023 12 06.26022501 21 01.543-29 52 36.67         20.71wXEX180F51
     K23X05Z  C2023 12 06.27085901 21 02.652-29 52 00.92         21.04wXEX180F51
     K23X05Z  C2023 12 06.35081601 21 10.794-29 47 30.56         20.76GVEX180F51
     K23X05Z  C2023 12 06.35145601 21 10.848-29 47 28.49         20.75GVEX180F51
     K23X05Z KC2023 12 07.13319101 22 36.980-29 03 32.80               VEX180I52
     K23X05Z KC2023 12 07.13468501 22 37.100-29 03 25.70         21.33GVEX180I52
     K23X05Z KC2023 12 07.13616701 22 37.260-29 03 22.00         21.45GVEX180I52
     K23X05Z KC2023 12 07.14078 01 22 37.84 -29 03 06.8                VEX180691
     K23X05Z KC2023 12 07.14622 01 22 38.34 -29 02 47.4                VEX180691
     K23X05Z KC2023 12 07.15167 01 22 38.85 -29 02 28.4                VEX180691
     K23X05Z |C2023 12 10.08991001 28 01.720-26 16 10.70         20.6 VuEX180807
     K23X05Z |C2023 12 10.09648001 28 02.430-26 15 49.50         21.2 VuEX180807
     K23X05Z |C2023 12 10.10305001 28 02.970-26 15 26.70         20.9 VuEX180807
     K23X05Z KC2023 12 10.14756601 28 08.425-26 13 10.92         20.77GVEX180I52
     K23X05Z KC2023 12 10.15137501 28 08.789-26 12 58.50         20.88GVEX180I52
     K23X05Z KC2023 12 10.15518301 28 09.228-26 12 45.43         21.02GVEX180I52
     K23X05Z KC2023 12 10.15898201 28 09.602-26 12 32.15         20.99GVEX180I52
     K23X05Z  C2023 12 10.22470001 28 17.284-26 08 46.52         20.91wXEX180F51
     K23X05Z  C2023 12 10.23583801 28 18.435-26 08 08.78         21.18wXEX180F51
     K23X05Z  C2023 12 10.24609701 28 19.490-26 07 33.94         21.25wXEX180F51

Observer details:
691 Steward Observatory, Kitt Peak-Spacewatch.  Observer R. A. Mastaler.
    0.9-m f/3 reflector + CCD.
807 Cerro Tololo Observatory, La Serena.  Observers T. Linder, R. Holmes, L.
    Horn.  0.61-m f/11 Ritchey-Chretien + CCD.
F51 Pan-STARRS 1, Haleakala.  Observers J. Herman, T. Lowe, P. Minguez, A.
    Schultz, I. Smith.  Measurers K. Chambers, T. de Boer, J. Fairlamb, H.
    Gao, M. Huber, C.-C. Lin, E. Magnier, Y. Ramanjooloo, R. Wainscoat, R.
    Weryk.  1.8-m Ritchey-Chretien + CCD.
I52 Steward Observatory, Mt. Lemmon Station.  Observers K. W. Wierzchos, G. J.
    Leonard.  Measurers E. C. Beshore, D. Fay, J. B. Fazekas, D. C. Fuls, A.
    R. Gibbs, A. D. Grauer, H. Groeller, J. K. Hogan, R. A. Kowalski, S. M.
    Larson, G. J. Leonard, D. Rankin, R. L. Seaman, F. C. Shelly, K. W.
    Wierzchos.  1.0-m prime focus + CCD.

Orbital elements:
2023 XZ5                                                 Earth MOID = 0.3723 AU
Epoch 2023 Sept. 13.0 TT = JDT 2460200.5                Bell                    
M 340.17383              (2000.0)            P               Q                  
n   0.39819343     Peri.  284.47619     +0.86026522     -0.38923504             
a   1.8298128      Node    99.31315     +0.49037311     +0.80847377             
e   0.3375187      Incl.   19.49355     -0.13956349     +0.44143656             
P   2.48           H   20.17          G   0.15           U   9                  
Residuals in seconds of arc
231206 F51  0.2+  0.0     231207 I52  0.3-  0.1+    231210 I52  0.3-  0.4-
231206 F51  0.1+  0.0     231207 691  0.9+  0.3-    231210 I52  0.3+  0.2-
231206 F51  0.0   0.1-    231207 691  0.1+  0.7+    231210 I52  0.0   0.1+
231206 F51  0.3+  0.1-    231207 691  0.5-  1.3+    231210 F51  0.0   0.0
231206 F51  0.3+  0.0     231210 807  0.4+  1.0+    231210 F51  0.1-  0.0
231206 F51  0.2+  0.1-    231210 807  0.7+  0.2-    231210 F51  0.2-  0.1+
231207 I52  0.1+  0.6-    231210 807  1.3-  0.2+
231207 I52  0.4-  1.4+    231210 I52  0.2+  0.2+

Ephemeris:
2023 XZ5                 a,e,i = 1.83, 0.34, 19                  q = 1.2122
Date    TT    R. A. (2000) Decl.     Delta      r    Elong.  Phase     V
2023 11 10    00 34 36.5 -51 50 08   0.4973  1.2145   104.5    52.1    21.0
...
2023 11 25    01 00 48.0 -40 04 47   0.5069  1.2303   106.4    50.4    21.0
...
2023 12 03    01 15 06.8 -32 54 20   0.5198  1.2445   107.4    49.1    21.1
...
2023 12 09    01 26 01.7 -27 17 57   0.5345  1.2575   108.0    48.2    21.1
2023 12 10    01 27 52.0 -26 21 21   0.5375  1.2599   108.1    48.0    21.1
2023 12 11    01 29 42.7 -25 24 42   0.5405  1.2624   108.1    47.8    21.1
...
2023 12 17    01 40 55.3 -19 45 34   0.5622  1.2780   108.4    47.0    21.2
...
2023 12 25    01 56 17.1 -12 25 23   0.5998  1.3016   108.1    45.9    21.4
...
2024 01 09    02 26 26.7 -00 00 48   0.6976  1.3529   105.9    44.3    21.7

M. P. C. Staff               (C) Copyright 2023 MPC           M.P.E.C. 2023-X180





More information about the Iaude mailing list